Home > Weather > Fosnavåg > Past weeks

Flag for Norway Past Weather in Fosnavåg, Norway — Yesterday and Last 2 Weeks

Now
46 °F

Cool.


Feels Like: 39 °F
Forecast: 46 / 58 °F
Wind: 16 mph from Northeast

Location: Svinoy Fyr

Current Time: May 25, 2016 at 3:39:44 AM

Latest Report: May 25, 2016 at 3:00 AM


Visibility: N/A

Pressure: 30.30 "Hg

Humidity: 89%

Dew Point: 43 °F

Location of FosnavågLocation

Past Weather in Fosnavåg — Graph

°F

Fosnavåg Temperature Yesterday

Maximum temperature yesterday: 47 °F (at 5:00 PM)
Minimum temperature yesterday: 45 °F (at 2:00 AM)
Average temperature yesterday: 46 °F

High & Low Weather Summary for the Past Weeks

 TemperatureHumidityPressure
High55 °F (May 21, 1:00 PM)95% (May 22, 4:00 PM)30.30 "Hg (May 22, 4:00 PM)
Low39 °F (May 13, 8:00 PM)53% (May 17, 1:00 PM)29.58 "Hg (May 20, 2:00 PM)
Average45 °F77%29.91 "Hg
* Reported May 10 2:00 AM — May 25 2:00 AM, Fosnavåg, Weather by CustomWeather, © 2016

Note: Actual official high and low records may vary slightly from our data, if they occured in-between our weather recording intervals... More about our weather records

Advertising

Fosnavåg Weather History for the Previous 24 Hours

Scroll right to see more
 ConditionsComfort  
Time TempWeatherWind HumidityBarometerVisibility
2:00 AM
Wed, May 25
46 °FCool.16 mph88%30.30 "HgN/A
1:00 AM46 °FCool.15 mph87%30.30 "HgN/A
12:00 AM46 °FCool.14 mph89%30.30 "HgN/A
11:00 PM
Tue, May 24
46 °FCool.15 mph88%30.29 "HgN/A
10:00 PM46 °FCool.15 mph88%30.29 "HgN/A
9:00 PM47 °FCool.15 mph85%30.29 "HgN/A
8:00 PM47 °FCool.14 mph85%30.28 "HgN/A
7:00 PM47 °FCool.15 mph85%30.28 "HgN/A
6:00 PM47 °FCool.14 mph86%30.27 "HgN/A
5:00 PM47 °FCool.13 mph85%30.27 "HgN/A
4:00 PM47 °FCool.12 mph89%30.27 "HgN/A
3:00 PM47 °FCool.10 mph90%30.27 "HgN/A
2:00 PM47 °FCool.9 mph90%30.27 "HgN/A
1:00 PM46 °FCool.8 mph91%30.27 "HgN/A
12:00 PM47 °FCool.6 mph86%30.27 "HgN/A
11:00 AM46 °FCool.7 mph87%30.26 "HgN/A
10:00 AM46 °FCool.7 mph84%30.26 "HgN/A
9:00 AM46 °FCool.6 mph85%30.25 "HgN/A
8:00 AM46 °FCool.6 mph76%30.24 "HgN/A
7:00 AM45 °FCool.6 mph84%30.23 "HgN/A
6:00 AM46 °FCool.8 mph77%30.22 "HgN/A
5:00 AM45 °FCool.7 mph81%30.22 "HgN/A
4:00 AM46 °FCool.5 mph85%30.20 "HgN/A
3:00 AM45 °FCool.3 mph88%30.20 "HgN/A
Weather by CustomWeather, © 2016

See weather overviewHow to use our weather pages